Location: ??????
(30.0081°N, 31.2109°E)
Time: 08:14:55
(UTC+00:00)

SAR-Lupe-4 - Pass Details

Date: 03 March 2021
Orbit: 481 x 485 km, 98.2° (Epoch: 26 March)

Event Time Altitude Azimuth Distance (km) Brightness Sun altitude
Rises 16:35:12 0° 13° (NNE) 2,543 7.1 -9.4°
Reaches altitude 10° 16:37:16 10° 14° (NNE) 1,660 6.1 -9.8°
Maximum altitude 16:40:50 82° 102° (ESE) 491 3.4 -10.6°
Drops below altitude 10° 16:44:23 10° 190° (S) 1,652 6.4 -11.3°
Sets 16:46:26 0° 191° (SSW) 2,528 7.4 -11.8°
